Regional Weather Roundup
Issued by NWS Sioux Falls, SD

Home | Current Version | Previous Version | Graphics & Text | Print | Product List | Glossary On
Versions: 1 2 3 4 5 6 7 8 9 10 11 12 13 14 15 16 17 18 19 20 21 22 23 24 25 26 27 28 29 30 31 32 33 34 35 36 37 38 39 40 41 42 43 44 45 46 47 48 49 50
000
ASUS43 KFSD 311210
RWRFSD

WEATHER ROUNDUP FOR SE SOUTH DAKOTA/SW MINNESOTA/NW IOWA
NATIONAL WEATHER SERVICE SIOUX FALLS SD
700 AM CDT TUE MAY 31 2016

NOTE: "FAIR" INDICATES FEW OR NO CLOUDS BELOW 12,000 FEET WITH NO
SIGNIFICANT WEATHER AND OR OBSTRUCTIONS TO VISIBILITY.


SDZ038>040-050-052>070-311300-
SOUTHEAST SOUTH DAKOTA

CITY           SKY/WX    TMP DP  RH WIND       PRES   REMARKS
BROOKINGS      CLOUDY    58  54  86 W6        29.87R
CHAMBERLAIN    CLEAR     53  49  86 W13G18    29.96R
6HR MIN TEMP:  51; 6HR MAX TEMP:  60;

HURON          SUNNY     54  49  83 W16       29.89R
6HR MIN TEMP:  54; 6HR MAX TEMP:  61;

MADISON        FAIR      55  55 100 W15       29.89R
MITCHELL       CLOUDY    56  52  86 W14       29.92R
6HR MIN TEMP:  56; 6HR MAX TEMP:  63; 6HR PCP: TRACE;

SIOUX FALLS    CLOUDY    59  54  83 NW7       29.90R
6HR MIN TEMP:  59; 6HR MAX TEMP:  63; 6HR PCP:  0.17;

WINNER         FAIR      53  44  71 W12       29.98R
YANKTON        CLOUDY    59  54  82 W15       29.92R
$$

MNZ071-072-080-081-089-090-097-098-311300-
SOUTHWEST MINNESOTA

CITY           SKY/WX    TMP DP  RH WIND       PRES   REMARKS
FAIRMONT       CLOUDY    63  59  88 SE10      29.87R
JACKSON        DRIZZLE   61  59  94 S9        29.88R
LUVERNE        CLOUDY    59  54  82 W9        29.90R
MARSHALL       CLOUDY    62  59  90 W13       29.85R
6HR MIN TEMP:  61; 6HR MAX TEMP:  68; 6HR PCP:  0.09;

MONTEVIDEO     CLOUDY    63  63 100 NW10G18   29.83R
PIPESTONE      CLOUDY    59  55  88 NW7       29.88S
REDWOOD FALLS  LGT RAIN  64  60  87 SW14      29.83R
TRACY          CLOUDY    63  60  90 SW18      29.86R
WINDOM         CLOUDY    63  61  94 S7        29.86R
WORTHINGTON    LGT RAIN  61  59  93 SW15      29.89R
$$

IAZ001>003-012>014-020>022-031-032-NEZ013-014-SDZ071-311300-
NORTHWEST IOWA

CITY           SKY/WX    TMP DP  RH WIND       PRES   REMARKS
CHEROKEE       PTSUNNY   62  62 100 SW5       29.92R
DENISON        CLOUDY    64  61  88 CALM      29.89S
ESTHERVILLE    CLOUDY    61  61 100 S9        29.88R
LE MARS        LGT RAIN  63  61  94 W5        29.92S
ORANGE CITY    LGT RAIN  63  61  94 W12       29.91S
SHELDON        CLOUDY    61  61 100 SW9       29.90R
SIOUX CITY     LGT RAIN  63  60  90 N7        29.88F
6HR MIN TEMP:  62; 6HR MAX TEMP:  72; 6HR PCP:  0.13;

SPENCER        LGT RAIN  62  60  93 S6        29.89R
6HR MIN TEMP:  61; 6HR MAX TEMP:  66; 6HR PCP:  0.35;

STORM LAKE     DRIZZLE   63  61  94 W8        29.91R
$$

ABBREVIATIONS USED IN REMARKS
   TC - TEMPERATURE IN CELSIUS
  WCI - WIND CHILL INDEX
   HX - HEAT INDEX
  VSB - VISIBILITY





USA.gov is the U.S. government's official web portal to all federal, state and local government web resources and services.